Weather History for Valentine, NE

Change the Weather History Date:

Saturday, November 2, 2013

  Actual Average Record
Temperature  
Mean Temperature 42 °F 41 °F  
Max Temperature 61 °F 55 °F 82 °F (1965)
Min Temperature 22 °F 27 °F -2 °F (1991)
Degree Days  
Heating Degree Days 23 24  
Month to date heating degree days 46 47  
Since 1 July heating degree days 701 749  
Cooling Degree Days 0 0  
Month to date cooling degree days 0 0  
Year to date cooling degree days 964 821  
Moisture  
Dew Point 24 °F    
Average Humidity 57    
Maximum Humidity 92    
Minimum Humidity 22    
Precipitation  
Precipitation 0.00 in 0.03 in 1.04 in (1987)
Month to date precipitation T 0.06  
Year to date precipitation 22.40 19.06  
Snow  
Snow 0.00 in 0.10 in 4.20 in (1936)
Month to date snowfall 0.0 0.3  
Since 1 July snowfall 1.0 2.5  
Since 1 September snowfall 1.0 2.5  
Snow Depth 0.00 in    
Sea Level Pressure  
Sea Level Pressure 30.09 in    
Wind  
Wind Speed 11 mph (SW)    
Max Wind Speed 23 mph    
Max Gust Speed 31 mph    
Visibility 10 miles    
Events      
T = Trace of Precipitation, MM = Missing Value Source: NWS Daily Summary

Daily Weather History Graph

Daily Weather History Graph

Search for Another Location

Airport:

Trip Planner

Search our weather history database for the weather conditions in past years. The results will help you decide how hot, cold, wet, or windy it might be!

Date:

Astronomy

Nov. 02, 2013 Rise Set
Actual Time 8:18 AM CDT 6:32 PM CDT
Civil Twilight 7:48 AM CDT 7:02 PM CDT
Nautical Twilight 7:15 AM CDT 7:35 PM CDT
Astronomical Twilight 6:42 AM CDT 8:08 PM CDT
Moon 7:16 AM CDT (11/2) 6:05 PM CDT (11/2)
Length of Visible Light 11h 13m
Length of Day
10h 14m
Waning Crescent, 1% of the Moon is Illuminated
Nov 2
Waning Crescent
Nov 3
New
Nov 9
First Quarter
Nov 17
Full
Nov 25
Last Quarter

Hourly Weather History & Observations

Time (CDT) Temp. Windchill Dew Point Humidity Pressure Visibility Wind Dir Wind Speed Gust Speed Precip Events Conditions
12:52 AM 30.9 °F 22.8 °F 26.1 °F 82% 30.16 in 10.0 mi WNW 9.2 mph - N/A   Partly Cloudy
1:52 AM 30.9 °F 23.5 °F 26.1 °F 82% 30.18 in 10.0 mi WNW 8.1 mph - N/A   Clear
2:52 AM 30.0 °F 22.4 °F 25.0 °F 82% 30.19 in 10.0 mi WNW 8.1 mph - N/A   Clear
3:52 AM 27.0 °F 19.5 °F 24.1 °F 89% 30.20 in 10.0 mi SW 6.9 mph - N/A   Clear
4:52 AM 28.9 °F 21.9 °F 24.1 °F 82% 30.20 in 10.0 mi WSW 6.9 mph - N/A   Clear
5:52 AM 27.0 °F 19.5 °F 23.0 °F 85% 30.20 in 10.0 mi WSW 6.9 mph - N/A   Clear
6:52 AM 26.1 °F 18.4 °F 21.9 °F 84% 30.22 in 10.0 mi WSW 6.9 mph - N/A   Clear
7:52 AM 24.1 °F 17.0 °F 21.0 °F 88% 30.23 in 10.0 mi WSW 5.8 mph - N/A   Clear
8:52 AM 27.0 °F - 23.0 °F 85% 30.22 in 10.0 mi Calm Calm - N/A   Clear
9:52 AM 36.0 °F 27.1 °F 26.1 °F 67% 30.22 in 10.0 mi WSW 13.8 mph - N/A   Clear
10:52 AM 44.1 °F 37.7 °F 26.1 °F 49% 30.20 in 10.0 mi WSW 12.7 mph - N/A   Clear
11:52 AM 51.1 °F - 26.1 °F 38% 30.18 in 10.0 mi WSW 9.2 mph - N/A   Clear
12:52 PM 55.0 °F - 25.0 °F 31% 30.15 in 10.0 mi SW 5.8 mph - N/A   Clear
1:52 PM 57.9 °F - 21.9 °F 25% 30.10 in 10.0 mi SSW 11.5 mph - N/A   Clear
2:52 PM 60.1 °F - 21.0 °F 22% 30.05 in 10.0 mi SSW 12.7 mph - N/A   Clear
3:52 PM 61.0 °F - 21.9 °F 22% 30.02 in 10.0 mi SSW 11.5 mph 19.6 mph N/A   Clear
4:52 PM 60.1 °F - 21.9 °F 23% 30.00 in 10.0 mi SSW 17.3 mph 21.9 mph N/A   Clear
5:52 PM 57.9 °F - 21.9 °F 25% 29.97 in 10.0 mi South 16.1 mph - N/A   Clear
6:52 PM 52.0 °F - 24.1 °F 34% 29.95 in 10.0 mi SSE 10.4 mph - N/A   Clear
7:52 PM 50.0 °F - 24.1 °F 36% 29.94 in 10.0 mi SSE 12.7 mph - N/A   Clear
8:52 PM 48.0 °F - 24.1 °F 39% 29.91 in 10.0 mi SSE 16.1 mph - N/A   Clear
9:52 PM 46.0 °F 39.9 °F 25.0 °F 44% 29.88 in 10.0 mi SSE 13.8 mph - N/A   Clear
10:52 PM 46.0 °F 40.6 °F 26.1 °F 46% 29.85 in 10.0 mi SSE 11.5 mph - N/A   Clear
11:52 PM 46.9 °F - 26.1 °F 44% 29.79 in 10.0 mi South 20.7 mph 25.3 mph N/A   Clear